Погода в Сорочинске

Погода в Сорочинске : погода сейчас, прогноз погоды и архив. Всё, что Вы хотите узнать о погоде в Сорочинске!

Хотите узнать прогноз погоды в Сорочинске? Тогда Вам сюда: Погода в Сорочинске

Поиск расширенной информации на нашем сайте:

Другие новости

Новости СМИ2

Главная страница сайта

Новости сайта

03.07.2017

Напоминаем, что на нашем специализированном сайте Метеоцентр.Азия вы можете получить высокодетализированные автоматические прогнозы погоды по пунктам России, СНГ и мира в авиационном формате (включающие направление и скорость ветра, видимость, явления погоды, количество и форму облачности, нижнюю и верхнюю границу облачности).


Погода в Сорочинске - сегодня

Время (UTC), дата Ветер
(°,м/с) 
Видим.   Явления Облачность Т
(°С)
Тd
(°С)
f(%) Тe
(°С)
Pmin
(гПа)
dP
(гПа)
Po
(мм)
O2
(г/м3)
Тmin Tmax R s Состояние
почвы
21 17.09.17 280 (З) 20000 м    ясно 
+9.1 +5.4 78 +10  1022.4  0.4  755  294           
00 18.09.17 310 (СЗ) 20000 м    ясно 
+7.9 +5.3 84 +9  1023.2  0.8  756  295           
03 18.09.17 тихо ()   20000 м    6/0 верхняя 
[Ci fib]
+7 +5.6 91 +7  1023.8  0.5  756  296  +6.2        сухая 
06 18.09.17 050 (СВ) 20000 м    6/0 верхняя 
[Ci]
+18.2 +6.5 46 +20  1023.7  0.5  757  285           
09 18.09.17 330 (СЗ) 20000 м    4/0 верхняя 
[Ci fib]
+21.8 +4.9 33 +22  1022.7  -0.8  756  281           
12 18.09.17 100 (В) 20000 м    8/0 верхняя 
[Ci]
+23.1 +6.2 34 +23  1021.2  -1.4  755  280           
18 18.09.17 120 (ЮВ) 20000 м    6/0 верхняя 
[Ci fib]
+15 +8.2 64 +16  1021.1  0.1  755  287           
21 18.09.17 120 (ЮВ) 20000 м    6/0 верхняя 
[Ci fib]
+12.9 +8 72 +13  1020.8  -0.4  754  289           
00 19.09.17 100 (В) 20000 м    3/0 верхняя 
[Ci fib]
+12.4 +6.4 67 +13  1020.9  0.1  754  290           
03 19.09.17 110 (В) 20000 м    10/0 верхняя 
[Ci fib]
+15.9 +5.8 51 +17  1020.9  0.1  755  286  +12.4        сухая 
06 19.09.17 210 (ЮЗ) 7-12{12}  20000 м    10/0 верхняя 
[Ci]
+23.8 +4.9 29 +24  1020.1  -0.3  754  279           
09 19.09.17 200 (Ю) 6-10{12}  20000 м    10/0 верхняя 
[Ci fib]
+29.2 +6.2 23 +29  1019.4  -0.5  754  273           
12 19.09.17 220 (ЮЗ) 7-12{14}  20000 м    10/3 1000 м верхняя 
[Cu hum|Ci fib]
+31.1 +6.1 21 +31  1018.2  -1.1  753  271           
15 19.09.17 190 (Ю) 2{13}  20000 м    6/0 средняя, верхняя 
[Ac trans|Ci fib]
+25.8 +6.8 30 +26  1018.3  -0.1  753  276    +31.2       
18 19.09.17 200 (Ю) 20000 м    6/0 средняя 
[Ac trans]
+23.3 +5.7 32 +23  1018.6  0.1  753  279           
21 19.09.17 190 (Ю) 20000 м    ясно 
+20.3 +4.2 35 +20  1018.7  753  282           
00 20.09.17 200 (Ю) 20000 м    6/0 средняя 
[Ac trans]
+19.9 +4.2 35 +20  1018.3  -0.4  753  282           
03 20.09.17 080 (В) 20000 м    8/6 1000 м верхняя 
[Sc|Ci fib]
+17.4 +4.6 43 +19  1019.2  0.8  753  285  +17.4        сухая 
06 20.09.17 230 (ЮЗ) 20000 м    8/0 средняя 
[Ac trans]
+24.4 +4.6 28 +24  1019.2  0.3  754  278           
09 20.09.17 270 (З) 20000 м    6/0 средняя 
[Ac trans]
+29.1 +4.9 21 +29  1018.6  -0.4  753  274           
12 20.09.17 310 (СЗ) 20000 м    3/0 средняя 
[Ac trans]
+27.7 +6.7 26 +28  1018.7  0.1  753  275           
15 20.09.17 330 (СЗ) 20000 м    3/0 средняя 
[Ac trans]
+20.9 +8.4 45 +21  1019.8  0.7  754  281    +29.2       
18 20.09.17 320 (СЗ) 20000 м    3/0 верхняя 
[Ci fib]
+15.8 +4.3 46 +17  1021  0.9  755  287           
21 20.09.17 300 (СЗ) 20000 м    ясно 
+11.6 +5.2 65 +13  1022  0.7  755  291           
00 21.09.17 270 (З) 20000 м    ясно 
+8.9 +5.5 79 +10  1022.6  0.5  756  294           
Время (UTC), дата Ветер
(°,м/с) 
Видим.   Явления Облачность Т
(°С)
Тd
(°С)
f(%) Тe
(°С)
Pmin
(гПа)
dP
(гПа)
Po
(мм)
O2
(г/м3)
Тmin Tmax R s Состояние
почвы

Для получения пояснительной информации подведите курсор к названию столбца.

ПОГОДА в Сорочинске - архив

Всё, что Вы хотите узнать о погоде в Сорочинске - удобно и подробно!

Выберите нужную дату (начиная с 1 января 2015* года) и нажмите кнопку "Найти".
Будут отображены архивные сводки погоды по пункту Сорочинск, начиная с указанной даты.


Отображать данные в формате CSV (для использования в таблицах Excel)


Внимание! Наш архив погоды предназначен исключительно для личного некоммерческого использования в познавательных целях. Если Вам необходимы официальные справки о состоянии погоды (для производственных, юридических, коммерческих и т.п. целей), обращайтесь в органы Росгидромета.

*Примечание: данная дата относится к архиву по метеостанциям СССР (Россия, СНГ, Балтия).
Архив по метеостанциям Зарубежной Европы и Азии (кроме Китая) хранится 10 дней, по другим регионам земного шара (Китай, Африка, Америка, Австралия, Океания) - 1 день.

Сорочинск - район местоположения метеостанции


Название, широта, долгота, высота метеостанции:
Сорочинск 52.4°ш. 53.1°д. 123 м над ур. моря [Российская Федерация]

Дополнительная информация

В oтличие oт бoльшинства пoгoдных сайтoв мы публикуем пoдрoбную метеoинфoрмацию в детальнoм прoфессиoнальнoм фoрмате.

Характеристики температуры и влажнoсти вoздуха измеряются на высoте 2 м в тени вдали oт зданий и деревьев.
Скoрoсть ветра измеряется на высoте 10 м (на урoвне рoста челoвека скoрoсть ветра ниже в 1.5-2 раза). Если метеoстанция нахoдится в гoрoде или в лесу, тo скoрoсть ветра занижена на 2-4 м/с пo сравнению с oткрытым местoм. Скoрoсть ветра над акватoриями крупных рек и oзёр, а также на вершинах хoлмoв на 2-5 м/с выше, чем в oбычных услoвиях.
Атмoсфернoе давление в разных тoчках местнoсти мoжет значительнo oтличаться oт давления на метеoстанции, в зависимoсти oт услoвий рельефа (при пoдъёме на 10 м давление пoнижается примернo на 1 мм рт.ст.).